Tracking 34719 objects as of 12-Jul-2026
HD Live streaming from Space Station
objects crossing your sky now

STARLINK-37794

Track STARLINK-37794 now!
10-day predictions
STARLINK-37794 is classified as:


NORAD ID: 69310
Int'l Code: 2026-119Q
Perigee: 472.0 km
Apogee: 473.5 km
Inclination: 97.3 °
Period: 93.9 minutes
Semi major axis: 6843 km
RCS: Unknown
Launch date: May 30, 2026
Source: United States (US)
Launch site: AIR FORCE WESTERN TEST RANGE (AFWTR)
Your satellite tracking list
Your tracking list is empty




NASA's NSSDC Master Catalog

Two Line Element Set (TLE):
1 69310U 26119Q   26193.53876819  .00013228  00000-0  41163-3 0  9990
2 69310  97.2866 219.3006 0001159  59.0843 301.0514 15.33424035  7949
Source of the keplerian elements: AFSPC